Location: Paterno
(43.7500°N, 11.3333°E)
Time: 06:42:05
(UTC+00:00)

Daily predictions for brighter satellites

Satellite Brightness Start Highest point End
(mag) Time Altitude Azimuth Time Altitude Azimuth Time Altitude Azimuth
USA 186 4.2 19:31:21 10° SW 19:33:21 19° W 19:35:27 10° NW
Lacrosse 5 3.0 19:29:40 10° NW 19:34:23 37° NNE 19:39:04 10° E
USA 238 DEB 3.6 19:35:02 10° SSW 19:41:25 62° ESE 19:48:07 10° NE
USA 238 3.7 19:35:09 10° SSW 19:41:32 61° ESE 19:48:13 10° NE
USA 215 4.3 19:38:54 10° ENE 19:43:33 20° ESE 19:48:11 10° SSE
Terra 3.9 19:41:12 10° E 19:43:44 15° ENE 19:46:16 10° NNE
SWAS 4.4 19:39:55 10° SSW 19:44:12 79° ESE 19:48:31 10° NNE
Cosmos 1733 4.1 19:41:45 10° NNW 19:45:30 50° W 19:49:14 10° S
Cosmos 2263 Rocket 2.4 19:40:51 10° NNW 19:46:32 64° ENE 19:52:10 10° SE
BREEZE-M DEB (TANK) 4.5 19:41:51 10° WNW 19:46:56 30° N 19:49:13 10° ENE
Cosmos 676 Rocket 4.5 19:41:53 10° N 19:47:06 50° ENE 19:52:13 10° SE
Cosmos 1400 Rocket 3.0 19:43:25 10° NNW 19:47:17 68° W 19:51:07 10° S
Cosmos 2285 Rocket 4.3 19:41:22 10° S 19:47:28 48° ESE 19:53:37 10° NNE
Cosmos 2227 Rocket 4.3 19:44:40 10° NW 19:48:59 23° W 19:53:18 10° SSW
Cosmos 1605 Rocket 4.2 19:42:54 10° N 19:49:15 61° ENE 19:55:32 10° SSE
Cosmos 1954 Rocket 4.4 19:44:26 10° NNW 19:49:40 54° ENE 19:54:45 11° SE
Cosmos 1707 3.6 19:46:14 10° SSE 19:49:42 32° E 19:53:11 10° NNE
Resurs 1-3 4.3 19:46:14 10° S 19:50:31 54° W 19:54:51 10° NNW
Ariane Rocket 3.6 19:46:52 10° S 19:51:52 58° W 19:56:55 10° NNW
Meteor 2-10 4.0 19:47:39 10° N 19:52:43 74° E 19:57:48 10° SSE
Cosmos 1726 2.5 19:51:16 10° N 19:54:47 47° ENE 19:58:03 12° SSE
Okean 1 Rocket 3.3 19:50:52 10° N 19:55:09 54° E 19:59:21 10° SSE
CENTAUR R/B 2.4 19:54:46 10° SSW 20:00:31 76° ESE 20:07:26 10° NE
BREEZE-M DEB (TANK) 4.2 20:03:11 10° SW 20:04:08 11° SSW 20:05:16 10° S
Cosmos 1624 Rocket 4.3 20:02:34 10° SSW 20:07:53 73° WNW 20:13:12 10° NNE
Cosmos 1378 Rocket 3.6 20:03:50 10° S 20:08:09 81° W 20:12:32 10° N
Landsat 7 4.0 20:06:36 10° S 20:11:21 73° WSW 20:16:08 10° NNW
Cosmos 1140 Rocket 4.2 20:07:12 10° NNW 20:12:17 51° WSW 20:17:19 10° S
Meteor 2-20 4.4 20:07:36 10° S 20:13:40 70° E 20:19:43 10° NNE
MetOp-B 4.2 20:10:34 10° SSE 20:15:55 83° WSW 20:21:19 10° NNW
Cosmos 220 Rocket 4.1 20:17:09 10° SSW 20:21:28 76° WNW 20:25:45 10° NNE
Resurs 01 Rocket 2.6 20:17:43 10° S 20:21:55 44° W 20:26:09 10° NNW
Meteor 1-21 4.4 20:23:02 10° SSW 20:28:44 78° W 20:34:23 10° N
SPOT 1/Viking Rocket 3.7 20:26:52 12° S 20:31:32 72° WSW 20:36:41 10° NNW
NOSS 8 (A) 4.5 20:28:15 10° SSW 20:31:41 46° SE 20:34:36 10° NE
Cosmos 1452 Rocket 3.5 20:26:37 10° S 20:31:49 63° ESE 20:37:03 10° NNE
SL-16 R/B 2.1 20:27:01 10° SSW 20:32:41 82° ESE 20:38:23 10° NNE
KORONAS-FOTON 4.3 20:30:54 21° SSE 20:32:59 42° E 20:36:35 10° NNE
Cosmos 1315 Rocket 3.3 20:32:19 10° NNW 20:36:25 61° W 20:39:40 15° S
Cosmos 1470 3.6 20:32:50 10° NNW 20:36:41 47° W 20:40:10 12° SSW
Cosmos 2322 Rocket 2.2 20:31:21 10° SSW 20:37:00 70° ESE 20:42:42 10° NNE
Cosmos 2360 Rocket 2.7 20:33:01 15° S 20:37:17 40° ESE 20:42:32 10° NE
USA 245 4.1 20:34:39 15° S 20:38:12 68° W 20:43:33 10° NNW
Cosmos 1626 3.3 20:38:36 23° ESE 20:39:40 27° E 20:42:49 10° NNE
Meteor 1-16 Rocket 4.4 20:35:14 10° N 20:40:41 57° ENE 20:44:05 22° SSE
CARTOSAT-1 3.5 20:37:46 20° SSE 20:40:45 88° WSW 20:45:06 10° NNW
Cosmos 1850 Rocket 4.2 20:38:35 10° NNW 20:43:52 60° ENE 20:47:06 23° SE
COSMOS 2428 4.4 20:44:05 14° ESE 20:45:00 15° E 20:48:01 10° ENE
Genesis I 3.6 20:41:53 10° SW 20:45:42 66° NW 20:49:37 10° NNE
Cosmos 1025 Rocket 3.7 20:44:29 25° SE 20:46:27 38° E 20:50:32 10° NNE
Cosmos 1975 Rocket 2.9 20:45:14 18° S 20:48:21 78° E 20:52:44 10° N
Cosmos 2237 4.2 20:44:48 10° S 20:50:25 64° ESE 20:56:04 10° NNE
Cosmos 1758 4.0 20:49:29 10° NNW 20:53:19 49° W 20:56:03 18° SSW
Geosat 4.3 20:50:14 21° S 20:53:33 62° WSW 20:58:32 10° NNW
Spot 2 Rocket 3.8 20:52:27 18° S 20:56:11 60° W 21:01:13 10° NNW
NOSS 3-2 (C) 4.0 20:51:23 10° SW 20:56:54 57° NW 21:03:19 10° NNE
Cosmos 2100 Rocket 4.0 20:51:28 10° N 20:57:53 80° E 21:02:07 23° SSE
SPOT 5 3.0 20:55:35 23° SSE 20:58:57 85° WSW 21:04:01 10° NNW
ARIANE 5 R/B 3.1 20:57:21 21° S 21:00:13 57° W 21:04:38 10° NNW
Cosmos 1674 2.6 21:00:03 25° SSW 21:02:09 81° W 21:05:53 10° N
Cosmos 1331 Rocket 4.2 20:59:23 24° S 21:02:21 52° ESE 21:07:28 10° NNE
Lacrosse 5 rocket 2.6 21:08:00 21° E 21:08:00 21° E 21:09:40 10° ENE
Cosmos 1300 4.0 21:03:44 10° NNE 21:07:00 26° ENE 21:07:53 24° E
ERS-1 Rocket 3.1 21:04:54 24° S 21:07:59 70° WSW 21:13:02 10° NNW
ATLAS 3B R/B 3.2 21:05:51 25° SSE 21:08:46 36° ESE 21:14:46 10° NE
FALCON 9 DEB 3.0 21:13:32 37° SSW 21:14:39 59° SE 21:18:01 10° ENE
Cosmos 1741 Rocket 4.0 21:09:25 10° NNW 21:14:42 78° WSW 21:17:21 30° S
Lacrosse 5 2.2 21:12:36 10° NW 21:17:31 52° SW 21:19:33 32° S
Cosmos 1844 Rocket 2.7 21:12:45 10° NNW 21:18:27 74° ENE 21:21:16 31° SE
Cosmos 1461 3.2 21:15:11 10° NNW 21:19:22 58° NE 21:20:50 36° ESE
Cosmos 1908 3.4 21:16:04 10° NNW 21:19:56 65° W 21:21:21 36° SSW
Cosmos 2173 Rocket 4.1 21:14:29 10° N 21:20:52 75° W 21:24:53 24° S
Terra 1.9 21:18:34 30° S 21:20:52 73° WSW 21:25:39 10° NNW
Cosmos 1953 2.9 21:19:09 10° NNW 21:23:08 53° W 21:24:52 30° SSW
Cosmos 2016 Rocket 3.9 21:17:05 10° N 21:23:13 77° E 21:26:23 30° SSE
USA 215 3.1 21:20:39 10° NE 21:27:13 77° SE 21:33:46 10° SW
Cosmos 2333 4.3 21:25:50 29° S 21:28:41 59° ESE 21:34:19 10° NNE
Cosmos 2263 Rocket 4.2 21:25:56 10° NW 21:29:54 20° W 21:33:50 10° SW
Cosmos 1340 2.5 21:31:14 54° SSE 21:31:57 73° E 21:35:43 10° NNE
Cosmos 1544 Rocket 3.7 21:28:30 10° NNW 21:32:58 71° W 21:34:38 37° S
Cosmos 1725 Rocket 3.9 21:26:53 10° N 21:33:05 79° E 21:36:06 33° SSE
Cosmos 389 Rocket 4.4 21:33:41 10° NNE 21:36:04 17° ENE 21:36:16 17° ENE
SL-24 R/B 4.3 21:31:28 10° N 21:36:23 82° E 21:38:14 38° S
SL-14 R/B 3.2 21:35:27 47° S 21:36:35 88° E 21:40:38 10° N
Cosmos 2333 Rocket 2.3 21:34:43 33° S 21:37:06 57° ESE 21:42:43 10° NNE
Cosmos 1455 Rocket 4.2 21:34:03 10° NNW 21:38:09 37° W 21:40:20 23° SW
ATLAS CENTAUR R/B 2.5 21:36:41 10° NNW 21:40:46 39° NE 21:42:40 26° E
Cosmos 1802 Rocket 4.2 21:35:50 10° NNW 21:42:01 65° W 21:45:31 27° SSW
Aureole 1 Rocket 4.2 21:40:06 10° NNW 21:45:48 68° WSW 21:49:17 31° S
GEOS 3 Rocket 3.7 21:44:22 35° SE 21:46:46 82° NE 21:52:08 10° NW
Meteor 1-24 Rocket 3.6 21:50:33 41° SSE 21:52:20 67° E 21:57:43 10° NNE
Cosmos 1844 3.7 21:50:08 10° NNW 21:55:40 69° WSW 21:57:38 40° S
Spot 4 4.1 21:58:00 42° SE 21:59:21 57° ENE 22:04:03 10° N
USA 267 3.6 21:55:00 17° ESE 22:00:08 64° NNE 22:06:36 10° NW
Cosmos 2219 Rocket 2.1 21:58:17 37° S 22:00:34 75° ESE 22:06:16 10° NNE
Cosmos 1536 Rocket 4.0 22:01:43 36° SW 22:03:18 58° W 22:07:43 10° N
COBE Rocket 4.4 22:07:24 38° ESE 22:08:55 51° ENE 22:13:46 10° N
DNEPR-1 R/B 3.5 22:04:52 10° NNW 22:09:06 74° NE 22:09:58 55° ESE
Cosmos 405 3.7 22:06:53 10° NNW 22:10:09 41° W 22:10:11 41° W
Cosmos 1992 Rocket 4.4 22:09:34 41° SE 22:10:19 43° ESE 22:15:15 10° NNE
Cosmos 968 Rocket 3.5 22:07:09 10° NNW 22:12:17 70° ENE 22:13:42 46° SE
Cosmos 2237 Rocket 3.2 22:12:09 27° ESE 22:12:36 28° ESE 22:17:18 10° NE
Uosat 12 SS-18 rocket 4.1 22:12:32 56° SE 22:12:43 56° ESE 22:17:28 10° NE
Cosmos 1626 4.4 22:13:05 14° WSW 22:14:53 19° WNW 22:17:37 10° NNW
SL-8 R/B 3.5 22:16:12 10° WNW 22:21:01 85° SSW 22:22:09 53° ESE
Cosmos 2360 Rocket 3.7 22:16:18 10° WSW 22:21:21 33° NW 22:26:25 10° N
Iridium 2 3.8 22:23:25 63° ENE 22:23:25 63° ENE 22:27:00 10° N
Meteor 2-10 Rocket 3.3 22:19:43 10° NNW 22:24:52 85° W 22:26:01 54° S
COSMOS 2428 2.7 22:26:04 37° SSW 22:28:28 83° WNW 22:34:16 10° NNE
Cosmos 2322 4.3 22:30:23 22° SW 22:33:55 52° WNW 22:39:27 10° NNE
Cosmos 1346 Rocket 2.9 22:35:16 64° WSW 22:35:33 67° WNW 22:39:33 10° N
Cosmos 2228 3.1 22:31:48 10° NNW 22:36:11 66° W 22:36:41 60° SW
Cosmos 1455 2.4 22:32:43 10° N 22:36:27 58° ENE 22:36:27 58° ENE
Cosmos 1184 Rocket 4.1 22:42:42 34° NE 22:42:42 34° NE 22:44:53 10° NNE
Cosmos 2278 Rocket 2.4 22:39:49 10° NNW 22:45:28 65° ENE 22:47:26 40° SE
Lacrosse 5 rocket 2.5 22:43:30 19° W 22:45:32 35° NW 22:48:52 10° NE
Cosmos 2058 Rocket 3.2 22:42:41 10° N 22:47:07 62° E 22:47:35 58° ESE
Cosmos 1891 Rocket 4.4 22:41:38 10° N 22:47:47 81° E 22:49:47 46° SSE
Cosmos 1503 Rocket 4.3 22:43:07 10° NNW 22:48:29 64° ENE 22:50:02 44° SE
Cosmos 967 Rocket 4.4 22:43:30 10° NW 22:49:53 84° WSW 22:52:04 45° SSE
Cosmos 1867 3.6 22:47:25 10° NNW 22:52:56 81° NE 22:54:32 47° SE
GP-B 4.4 22:49:28 10° NNE 22:53:19 28° E 22:53:50 27° E
Cosmos 1513 Rocket 4.3 22:48:50 10° N 22:54:57 87° E 22:56:49 48° S
Cosmos 1072 Rocket 4.5 22:51:02 10° N 22:57:29 89° W 22:59:35 46° S
Thor Agena Rocket 3.8 22:53:26 10° NNE 22:58:37 55° E 22:59:29 49° SE
ATLAS 3B R/B 3.4 22:52:59 10° WSW 22:59:14 50° NW 23:05:49 10° NNE
Meteor 2-1 Rocket 4.1 22:55:23 10° N 23:00:54 77° E 23:02:19 51° SSE
Cosmos 1726 Rocket 3.9 22:58:16 10° NNW 23:02:38 53° W 23:02:59 52° WSW
BREEZE-M DEB (TANK) 3.9 22:59:25 10° WNW 23:02:50 50° N 23:12:31 10° ENE
Cosmos 192 4.3 23:04:44 59° SE 23:05:16 64° ESE 23:10:09 10° NNE
Meteor 1-4 Rocket 3.8 23:04:00 10° N 23:06:59 31° ENE 23:06:59 31° ENE
ALOS 2 2.9 23:07:29 49° WSW 23:07:42 50° W 23:11:59 10° NNW
USA 215 4.4 23:03:53 10° NE 23:09:57 43° NNW 23:16:01 10° W
Cosmos 1703 3.2 23:10:30 81° NE 23:10:30 81° NE 23:14:18 10° N
Cosmos 389 Rocket 4.2 23:07:50 10° NW 23:10:03 23° WNW 23:10:03 23° WNW
Cosmos 1328 4.1 23:13:54 54° ENE 23:13:54 54° ENE 23:17:28 10° NNE
Cosmos 1892 Rocket 4.1 23:14:58 43° WSW 23:15:35 46° WNW 23:19:52 10° N
NOSS 0 Rocket 4.0 23:14:36 37° SW 23:17:08 72° WNW 23:23:23 10° NNE
ATLAS CENTAUR R/B 3.0 23:15:48 10° WNW 23:18:46 25° W 23:18:46 25° W
Cosmos 1441 Rocket 3.2 23:21:51 75° NW 23:21:51 75° NW 23:25:34 10° N
Cosmos 2333 Rocket 4.0 23:17:01 10° WSW 23:21:45 26° NW 23:26:29 10° N
Cosmos 1980 3.7 23:20:09 46° SW 23:21:54 78° WNW 23:27:37 10° NNE
FALCON 9 DEB 4.3 23:24:51 39° N 23:24:51 39° N 23:27:23 10° NE
SJ 16-02 3.1 23:22:54 10° N 23:26:38 26° ENE 23:28:33 19° E
PSLV R/B 3.5 23:23:10 10° NNE 23:27:27 68° ESE 23:27:42 66° SE
Cosmos 1464 Rocket 4.3 23:21:35 10° NNW 23:27:47 58° W 23:29:46 41° SSW
Cosmos 1634 Rocket 4.4 23:32:25 10° N 23:38:40 59° E 23:41:23 34° SE
Cosmos 1943 Rocket 3.5 23:34:00 10° N 23:39:03 35° NE 23:43:14 14° ESE
Cosmos 1777 Rocket 4.0 23:37:20 10° NNW 23:42:40 78° ENE 23:44:11 47° SE
Cosmos 1354 Rocket 4.3 23:37:55 10° NNW 23:43:05 51° WSW 23:43:50 47° SW
USA 267 3.6 23:42:18 40° SSW 23:43:18 42° SW 23:49:29 10° WNW
Aureole 3 3.8 23:40:38 10° N 23:44:03 49° E 23:44:20 48° E
Cosmos 2219 Rocket 4.3 23:41:00 10° W 23:45:09 20° NW 23:49:19 10° N
Cosmos 1626 Rocket 3.7 23:47:31 57° WSW 23:48:02 62° W 23:52:27 10° N
SL-16 R/B 2.4 23:48:19 47° SSE 23:49:39 60° ESE 23:55:14 10° NNE
EO 1 Del DPAF 3.1 23:49:01 10° NNE 23:52:37 83° NNE 23:52:37 83° NNE
Cosmos 1602 Rocket 3.5 23:53:05 66° SW 23:53:36 76° W 23:58:07 10° N
